Location: Key Biscayne
(25.6930°N, 80.1630°W)
Time: 04:44:02
(UTC-04:00)

CZ-2D R/B - Visible Passes

Search period start: 30 May 2016 00:00
Search period end: 09 June 2016 00:00
Orbit: 527 x 542 km, 97.5° (Epoch: 29 May)

Date Brightness Start Highest point End Pass type
(mag) Time Alt. Az. Time Alt. Az. Time Alt. Az.
30 May 4.5 21:26:21 10° S 21:30:01 41° W 21:33:44 10° NNW visible
31 May 3.9 21:17:09 10° S 21:20:58 56° W 21:24:50 10° NNW visible
01 Jun 3.4 21:08:03 10° S 21:11:56 78° W 21:15:51 10° NNW visible
02 Jun 3.2 20:59:01 10° SSE 21:02:54 76° ENE 21:06:48 10° N visible
03 Jun 3.4 20:50:04 10° SSE 20:53:52 55° ENE 20:57:42 10° N visible
04 Jun 3.8 20:41:12 10° SE 20:44:51 40° ENE 20:48:32 10° N visible
05 Jun 4.3 20:32:25 10° SE 20:35:51 30° ENE 20:39:17 10° NNE visible
05 Jun 6.2 22:08:56 10° WSW 22:10:15 11° W 22:11:33 10° WNW visible
06 Jun 6.0 21:58:49 10° SW 22:01:08 15° W 22:03:30 10° WNW visible
07 Jun 5.6 21:49:08 10° SW 21:52:03 20° W 21:55:00 10° NW visible
08 Jun 5.2 21:39:39 10° SSW 21:42:59 27° W 21:46:19 10° NW visible
